Weather Roundup
Issued by NWS Chicago, IL

Home | Current Version | Previous Version | Text Only | Print | Product List | Glossary Off
Versions: 1 2 3 4 5 6 7 8 9 10 11 12 13 14 15 16 17 18 19 20 21 22 23 24 25 26 27 28 29 30 31 32 33 34 35 36 37 38 39 40 41 42 43 44 45 46 47 48 49 50

000
NZUS59 KLOT 301610
HRRLOT

CHICAGO AREA WEATHER ROUNDUP
NATIONAL WEATHER SERVICE CHICAGO/ROMEOVILLE IL
1100 AM CDT SAT AUG 30 2014

NOTE: "FAIR" INDICATES FEW OR NO CLOUDS BELOW 12,000 FEET WITH NO
SIGNIFICANT WEATHER AND/OR OBSTRUCTIONS TO VISIBILITY.

* THESE STATIONS ARE NOT UNDER NWS QUALITY CONTROL. THEY ALSO MAY NOT
  REPORT WEATHER SUCH AS PRECIPITATION OR FOG.

ILZ005-006-012>014-019>023-301700-
NORTHEAST ILLINOIS

CITY           SKY/WX    TMP DP  RH WIND       PRES   REMARKS
OHARE          CLOUDY    76  66  71 SW17      29.86R
MIDWAY         CLOUDY    79  69  71 SW17G25   29.87R HX  81
AURORA         CLOUDY    76  69  79 SW14      29.87R
LANSING*         N/A    N/A N/A N/A MISG        N/A
JOLIET*        PTSUNNY   77  67  72 SW12G17   29.89R
WAUKEGAN       LGT RAIN  74  67  78 SW10      29.83S
DUPAGE AIRPORT CLOUDY    76  69  79 SW15      29.86R
WHEELING       CLOUDY    77  68  73 SW14G20   29.86S
KANKAKEE*      PTSUNNY   78  72  79 S15G22    29.92S HX  81
MORRIS*        CLOUDY    77  70  78 SW12G22   29.89R
LEWIS AIRPORT* CLOUDY    77  69  76 SW14G21   29.88R
NORTHERLY IS     N/A     78  66  66 SW15        N/A  HX  80
$$

WIZ051-052-058>065-066-070>072-301700-
SOUTHEAST WISCONSIN

CITY           SKY/WX    TMP DP  RH WIND       PRES   REMARKS
MILWAUKEE      MOSUNNY   78  66  66 SW14G23   29.80F HX  80
KENOSHA*       CLOUDY    77  68  73 SW14G22   29.82S
RACINE*        PTSUNNY   79  68  69 SW14G24   29.83S HX  81
BURLINGTON     LGT RAIN  71  67  88 SW12      29.81F
WAUKESHA       PTSUNNY   73  64  73 SW8       29.81F
WEST BEND      CLOUDY    75  64  69 SW12      29.79S
$$

INZ001>003-010>013-019-020-301700-
NORTHWEST INDIANA

CITY           SKY/WX    TMP DP  RH WIND       PRES   REMARKS
GARY*          PTSUNNY   79  70  73 SW12      29.89S HX  81
MICHIGAN CITY* NOT AVBL
RENSSELAER*    NOT AVBL
VALPARAISO     CLOUDY    78  69  73 S13       29.92S HX  80
$$

LMZ740>746-301700-
SOUTHERN LAKE MICHIGAN

STATION/POSITION TIME  SKY/WX   TEMP WIND        PRES    VSBY
                                AIR  DIR/SP/G
                 (UTC)          (F)  (DEG/KT/KT) (MB)    (MI)
HARRISON CRIB    1600            76  210/ 23/ 30   N/A
BURNHAM HARBOR   1600            78  180/ 15/ 19   N/A
CALUMET HARBOR   1600            78  190/ 14/ 18 1010.3S
BURNS HARBOR     NOT AVBL
MICHIGAN CITY    1600            76  170/ 16/ 22   N/A
$$

ABBREVIATIONS USED IN REMARKS
   TC - TEMPERATURE IN CELSIUS
  WCI - WIND CHILL INDEX
   HX - HEAT INDEX
  VSB - VISIBILITY
$$



USA.gov is the U.S. government's official web portal to all federal, state and local government web resources and services.